This demonstration page uses our WeatherBlox Daily Observations layout. Learn more.

38.88101, -77.10428

Hourly Observations for June 8, 2019

Temp ( °F °C ) Dew Point ( °F °C ) Humidity (%) Winds ( mph kmh ) Pressure ( in mb ) Visibility ( mi km ) Precip ( " mm )
12:52 am 00:52 Cloudy 74 23.3 64 17.8 71 71 ENE 6 9 29.98 1015 10 16.0934 0 0
1:52 am 01:52 Cloudy 72 22.2 63 17.2 73 73 E 6 9 29.98 1015 10 16.0934 0 0
2:52 am 02:52 Cloudy 69 20.6 63 17.2 81 81 ENE 7 11 29.98 1015 10 16.0934 0 0
3:52 am 03:52 Cloudy 70 21.1 62 16.7 76 76 NE 8 13 29.99 1016 10 16.0934 0 0
4:52 am 04:52 Cloudy 70 21.1 62 16.7 76 76 NE 9 15 30 1016 10 16.0934 0 0
5:52 am 05:52 Cloudy 70 21.1 62 16.7 76 76 NNE 8 13 30.01 1016 10 16.0934 0 0
6:52 am 06:52 Cloudy 70 21.1 62 16.7 76 76 NE 8 13 30.03 1017 10 16.0934 0 0
7:52 am 07:52 Cloudy 72 22.2 62 16.7 71 71 NE 10 17 30.05 1018 10 16.0934 0 0
8:52 am 08:52 Cloudy 74 23.3 62 16.7 67 67 NE 10 17 30.06 1018 10 16.0934 0 0
9:52 am 09:52 Cloudy 75 23.9 62 16.7 64 64 ENE 12 19 30.06 1018 10 16.0934 0 0
10:52 am 10:52 Cloudy 78 25.6 62 16.7 58 58 ENE 15 24 30.07 1018 10 16.0934 0 0
12:52 pm 12:52 Mostly Cloudy 80 26.7 60 15.6 51 51 E 14 22 30.08 1019 10 16.0934 0 0
1:52 pm 13:52 Mostly Cloudy 81 27.2 59 15 47 47 E 16 26 30.09 1019 10 16.0934 0 0
2:52 pm 14:52 Mostly Cloudy 83 28.3 60 15.6 46 46 E 16 26 30.08 1019 10 16.0934 0 0
3:52 pm 15:52 Mostly Cloudy 82 27.8 59 15 46 46 E 20 31 30.08 1019 10 16.0934 0 0
4:52 pm 16:52 Mostly Cloudy 81 27.2 59 15 47 47 ENE 15 24 30.08 1019 10 16.0934 0 0
5:52 pm 17:52 Cloudy 80 26.7 58 14.4 47 47 ESE 15 24 30.08 1019 10 16.0934 0 0
6:52 pm 18:52 Cloudy 78 25.6 58 14.4 50 50 E 17 28 30.09 1019 10 16.0934 0 0
7:52 pm 19:52 Cloudy 77 25 55 12.8 47 47 E 15 24 30.11 1020 10 16.0934 0 0
8:52 pm 20:52 Cloudy 75 23.9 54 12.2 48 48 E 10 17 30.13 1020 10 16.0934 0 0
9:52 pm 21:52 Cloudy 74 23.3 52 11.1 46 46 E 12 19 30.14 1021 10 16.0934 0 0
10:52 pm 22:52 Cloudy 72 22.2 52 11.1 50 50 E 10 17 30.14 1021 10 16.0934 0 0
11:52 pm 23:52 Cloudy 72 22.2 53 11.7 52 52 ENE 12 19 30.14 1021 10 16.0934 0 0

Powered by AerisWeather